Imperial, CA

1:50 AM PDT on October 17, 2017 (GMT -0700)
Imperial County

Weather History for KIPL - September, 2013

Change the Weather History Date:

Friday, September 27, 2013

  Actual Average Record
Temperature  
Mean Temperature 72 °F -  
Max Temperature 86 °F 96 °F 109 °F (2015)
Min Temperature 57 °F 68 °F 56 °F (1948)
Cooling Degree Days 6    
Growing Degree Days 22 (Base 50)    
Moisture  
Dew Point 34 °F    
Average Humidity 31    
Maximum Humidity 58    
Minimum Humidity 9    
Precipitation  
Precipitation 0.00 in - - ()
Sea Level Pressure  
Sea Level Pressure 29.89 in    
Wind  
Wind Speed 7 mph (NW)    
Max Wind Speed 13 mph    
Max Gust Speed 21 mph    
Visibility 10 miles    
Events      
Averages and records for this station are not official NWS values.
T = Trace of Precipitation, MM = Missing Value Source: NWS Daily Summary

Daily Weather History Graph

Daily Weather History Graph

Search for Another Location

Airport or City:

Trip Planner

Search our weather history database for the weather conditions in past years. The results will help you decide how hot, cold, wet, or windy it might be!

Date:

Astronomy

Sep. 27, 2013 Rise Set
Actual Time 6:34 AM PDT 6:31 PM PDT
Civil Twilight 6:09 AM PDT 6:56 PM PDT
Nautical Twilight 5:40 AM PDT 7:24 PM PDT
Astronomical Twilight 5:11 AM PDT 7:53 PM PDT
Moon No Moon Rise 1:56 PM PDT (9/27)
Length of Visible Light 12h 47m
Length of Day
11h 57m
Last Quarter, 44% of the Moon is Illuminated
Sep 27
Last Quarter
Oct 4
New
Oct 11
First Quarter
Oct 18
Full
Oct 26
Last Quarter

Hourly Weather History & Observations

Time (PDT) Temp. Dew Point Humidity Pressure Visibility Wind Dir Wind Speed Gust Speed Precip Events Conditions
12:53 AM 64.0 °F 46.0 °F 52% 29.79 in 10.0 mi West 5.8 mph - N/A   Clear
1:53 AM 63.0 °F 45.0 °F 52% 29.80 in 10.0 mi West 9.2 mph - N/A   Clear
2:53 AM 61.0 °F 45.0 °F 56% 29.81 in 10.0 mi West 4.6 mph - N/A   Clear
3:53 AM 60.1 °F 44.1 °F 55% 29.81 in 10.0 mi West 6.9 mph - N/A   Clear
4:53 AM 59.0 °F 44.1 °F 58% 29.83 in 10.0 mi West 8.1 mph - N/A   Clear
5:53 AM 57.9 °F 42.1 °F 56% 29.85 in 10.0 mi WNW 5.8 mph - N/A   Clear
6:53 AM 57.0 °F 41.0 °F 55% 29.88 in 10.0 mi West 6.9 mph - N/A   Clear
7:53 AM 64.9 °F 42.1 °F 43% 29.91 in 10.0 mi Calm Calm - N/A   Clear
8:53 AM 75.0 °F 37.0 °F 25% 29.94 in 10.0 mi North 6.9 mph - N/A   Clear
9:53 AM 79.0 °F 33.1 °F 19% 29.95 in 10.0 mi North 12.7 mph - N/A   Clear
10:53 AM 80.1 °F 28.0 °F 15% 29.96 in 10.0 mi NNW 10.4 mph - N/A   Clear
11:53 AM 82.0 °F 28.0 °F 14% 29.94 in 10.0 mi NNW 12.7 mph 20.7 mph N/A   Clear
12:53 PM 84.0 °F 27.0 °F 13% 29.92 in 10.0 mi North 11.5 mph 16.1 mph N/A   Clear
1:53 PM 84.0 °F 28.0 °F 13% 29.91 in 10.0 mi Variable 6.9 mph - N/A   Clear
2:53 PM 84.0 °F 26.1 °F 12% 29.90 in 10.0 mi Calm Calm - N/A   Clear
3:53 PM 84.9 °F 23.0 °F 10% 29.89 in 10.0 mi NNW 5.8 mph - N/A   Clear
4:53 PM 86.0 °F 21.0 °F 9% 29.89 in 10.0 mi North 8.1 mph - N/A   Clear
5:53 PM 84.0 °F 24.1 °F 11% 29.89 in 10.0 mi NNW 5.8 mph - N/A   Clear
6:53 PM 79.0 °F 28.9 °F 16% 29.89 in 10.0 mi NW 3.5 mph - N/A   Clear
7:53 PM 73.9 °F 33.1 °F 22% 29.91 in 10.0 mi NW 3.5 mph - N/A   Clear
8:53 PM 68.0 °F 33.1 °F 27% 29.92 in 10.0 mi West 3.5 mph - N/A   Clear
9:53 PM 64.0 °F 34.0 °F 33% 29.93 in 10.0 mi West 3.5 mph - N/A   Clear
10:53 PM 63.0 °F 33.1 °F 33% 29.94 in 10.0 mi WSW 4.6 mph - N/A   Clear
11:53 PM 60.1 °F 35.1 °F 39% 29.94 in 10.0 mi West 5.8 mph - N/A   Clear